* Astronomy

Members Login
Username 
 
Password 
    Remember Me  
Post Info TOPIC: Asteroid 2012 VK6


L

Posts: 131433
Date:
Asteroid 2012 VK6
Permalink  
 


Orbital elements:
2012 VK6                                            PHA, Earth MOID = 0.0264 AU
Epoch 2012 Sept. 30.0 TT = JDT 2456200.5                MPC
M  11.84778              (2000.0)            P               Q
n   0.37437171     Peri.  333.51351     -0.04871990     +0.99839487
a   1.9066341      Node   293.68229     -0.91070712     -0.05627764
e   0.6553324      Incl.    1.80717     -0.41016936     +0.00636505
P   2.63           H   20.1           G   0.15           U   9

MPEC 2012 - V30



__________________
Page 1 of 1  sorted by
 
Quick Reply

Please log in to post quick replies.



Create your own FREE Forum
Report Abuse
Powered by ActiveBoard